Location: Newark
(34.9500°N, 139.9667°E)
Time: 23:59:06
(UTC+00:00)

A-11 Canister half - Visible Passes

Search period start: 10 December 2019 00:00
Search period end: 20 December 2019 00:00
Orbit: 1526 x 1683 km, 47.3° (Epoch: 10 December)

Date Brightness Start Highest point End Pass type
(mag) Time Alt. Az. Time Alt. Az. Time Alt. Az.
10 Dec 10.0 18:44:31 10° SSW 18:53:49 44° SE 19:03:12 10° ENE visible
10 Dec 9.2 20:48:36 10° WSW 20:58:41 70° NNW 21:08:50 10° NE visible
11 Dec 10.0 18:25:32 19° S 18:32:12 42° SE 18:41:28 10° ENE visible
11 Dec 9.1 20:26:53 10° WSW 20:36:59 72° NNW 20:47:10 10° NE visible
12 Dec 10.0 18:06:54 30° S 18:10:35 40° SE 18:19:42 10° ENE visible
12 Dec 9.1 20:05:19 11° WSW 20:15:18 75° NNW 20:25:30 10° NE visible
13 Dec 10.0 17:47:49 36° SE 17:48:58 37° SE 17:57:56 10° ENE visible
13 Dec 9.1 19:46:13 22° WSW 19:53:36 77° NNW 20:03:49 10° NE visible
14 Dec 10.2 17:28:27 34° ESE 17:28:27 34° ESE 17:36:09 10° ENE visible
14 Dec 9.0 19:26:50 35° WSW 19:31:54 80° NNW 19:42:09 10° NE visible
15 Dec 10.5 17:08:52 28° E 17:08:52 28° E 17:14:22 10° ENE visible
15 Dec 9.0 19:07:14 53° WSW 19:10:13 83° NW 19:20:28 10° NE visible
15 Dec 9.6 21:07:00 10° W 21:16:34 44° NNW 21:26:09 10° ENE visible
16 Dec 10.8 16:49:05 21° E 16:49:05 21° E 16:52:34 10° ENE visible
16 Dec 8.9 18:47:27 75° WSW 18:48:32 86° NW 18:58:47 10° NE visible
16 Dec 9.6 20:45:47 12° W 20:54:48 45° NNW 21:04:25 10° ENE visible
17 Dec 11.1 16:29:11 15° ENE 16:29:11 15° ENE 16:30:44 10° ENE visible
17 Dec 9.0 18:27:32 81° NE 18:27:32 81° NE 18:37:06 10° NE visible
17 Dec 9.5 20:25:52 19° WNW 20:33:03 46° NNW 20:42:43 10° ENE visible
18 Dec 9.4 18:07:29 61° ENE 18:07:29 61° ENE 18:15:25 10° NE visible
18 Dec 9.5 20:05:49 26° WNW 20:11:17 47° NNW 20:21:00 10° ENE visible
19 Dec 9.8 17:47:22 45° ENE 17:47:22 45° ENE 17:53:44 10° NE visible
19 Dec 9.5 19:45:42 35° WNW 19:49:33 47° NNW 19:59:17 10° ENE visible
